• In Germany
  • List of Countries
  • For 7 days
  • Water Temperature
  • Satellite Maps
  • Weather Map
  • Weather Widgets
  • user-avatar
    Login

    Hourly Weather Akra

    Today, 16 December, Saturday

    Time Temperature Precipitation Wind Pressure Humidity
    00:00 +29°C° 0 mm 5 mps 757 mmHg 80%
    01:00 +28°C° 0.6 mm 5 mps 757 mmHg 82%
    02:00 +28°C° 0.6 mm 4 mps 756 mmHg 84%
    03:00 +27°C° 0.6 mm 4 mps 756 mmHg 86%
    04:00 +27°C° 0.2 mm 4 mps 756 mmHg 86%
    05:00 +27°C° 0.2 mm 4 mps 756 mmHg 85%
    06:00 +27°C° 0.2 mm 4 mps 757 mmHg 85%
    07:00 +29°C° 0.1 mm 4 mps 757 mmHg 77%
    08:00 +32°C° 0.1 mm 4 mps 757 mmHg 69%
    09:00 +33°C° 0.1 mm 4 mps 758 mmHg 60%
    10:00 +35°C° 0.2 mm 4 mps 758 mmHg 53%
    11:00 +37°C° 0.2 mm 4 mps 757 mmHg 45%
    12:00 +39°C° 0.2 mm 3 mps 757 mmHg 37%
    13:00 +40°C° 0 mm 4 mps 757 mmHg 37%
    14:00 +40°C° 0 mm 4 mps 756 mmHg 36%
    15:00 +40°C° 0 mm 5 mps 755 mmHg 36%
    16:00 +37°C° 0 mm 5 mps 756 mmHg 43%
    17:00 +35°C° 0 mm 5 mps 756 mmHg 50%
    18:00 +34°C° 0 mm 5 mps 756 mmHg 57%
    19:00 +33°C° 0 mm 6 mps 757 mmHg 62%
    20:00 +32°C° 0 mm 6 mps 757 mmHg 66%
    21:00 +30°C° 0 mm 6 mps 758 mmHg 71%
    22:00 +30°C° 0 mm 6 mps 758 mmHg 72%
    23:00 +30°C° 0 mm 6 mps 758 mmHg 74%

    Tomorrow, 17 December, Sunday

    Time Temperature Precipitation Wind Pressure Humidity
    00:00 +29°C° 0 mm 5 mps 758 mmHg 76%
    01:00 +29°C° 0 mm 6 mps 757 mmHg 78%
    02:00 +28°C° 0 mm 6 mps 757 mmHg 80%
    03:00 +28°C° 0 mm 6 mps 756 mmHg 82%
    04:00 +28°C° 0 mm 6 mps 756 mmHg 82%
    05:00 +28°C° 0 mm 5 mps 756 mmHg 83%
    06:00 +27°C° 0 mm 5 mps 756 mmHg 83%
    07:00 +29°C° 0 mm 5 mps 757 mmHg 76%
    08:00 +32°C° 0 mm 5 mps 757 mmHg 68%
    09:00 +33°C° 0 mm 4 mps 758 mmHg 60%
    10:00 +35°C° 0 mm 4 mps 758 mmHg 54%
    11:00 +37°C° 0 mm 4 mps 757 mmHg 47%
    12:00 +38°C° 0 mm 4 mps 757 mmHg 40%
    13:00 +40°C° 0 mm 5 mps 756 mmHg 38%
    14:00 +40°C° 0 mm 5 mps 756 mmHg 37%
    15:00 +40°C° 0 mm 6 mps 755 mmHg 35%
    16:00 +38°C° 0 mm 6 mps 755 mmHg 45%
    17:00 +35°C° 0 mm 7 mps 755 mmHg 55%
    18:00 +33°C° 0 mm 7 mps 756 mmHg 65%
    19:00 +33°C° 0 mm 7 mps 756 mmHg 68%
    20:00 +32°C° 0 mm 7 mps 757 mmHg 71%
    21:00 +30°C° 0 mm 7 mps 758 mmHg 75%
    22:00 +30°C° 0 mm 7 mps 758 mmHg 77%
    23:00 +30°C° 0 mm 7 mps 758 mmHg 78%

    Day after tomorrow, 18 December, Monday

    Time Temperature Precipitation Wind Pressure Humidity
    00:00 +29°C° 0 mm 7 mps 757 mmHg 80%
    01:00 +29°C° 0 mm 6 mps 757 mmHg 81%
    02:00 +29°C° 0 mm 6 mps 757 mmHg 82%
    03:00 +28°C° 0 mm 6 mps 756 mmHg 83%
    04:00 +28°C° 0 mm 6 mps 756 mmHg 84%
    05:00 +28°C° 0 mm 5 mps 756 mmHg 86%
    06:00 +28°C° 0 mm 5 mps 757 mmHg 87%
    07:00 +29°C° 0 mm 5 mps 757 mmHg 81%
    08:00 +30°C° 0 mm 5 mps 758 mmHg 75%
    09:00 +33°C° 0 mm 5 mps 758 mmHg 69%
    10:00 +33°C° 0 mm 5 mps 758 mmHg 65%
    11:00 +34°C° 0 mm 5 mps 757 mmHg 62%
    12:00 +35°C° 0 mm 5 mps 757 mmHg 58%
    13:00 +35°C° 0.1 mm 6 mps 756 mmHg 57%
    14:00 +36°C° 0.1 mm 6 mps 755 mmHg 55%
    15:00 +36°C° 0.1 mm 6 mps 755 mmHg 54%
    16:00 +35°C° 0.6 mm 6 mps 755 mmHg 60%
    17:00 +33°C° 0.6 mm 6 mps 755 mmHg 66%
    18:00 +32°C° 0.6 mm 5 mps 755 mmHg 72%
    19:00 +30°C° 0.2 mm 6 mps 756 mmHg 75%
    20:00 +30°C° 0.2 mm 6 mps 757 mmHg 77%
    21:00 +29°C° 0.2 mm 6 mps 757 mmHg 80%
    22:00 +29°C° 0 mm 6 mps 757 mmHg 81%
    23:00 +29°C° 0 mm 6 mps 757 mmHg 82%

    19 December, Tuesday

    Time Temperature Precipitation Wind Pressure Humidity
    00:00 +28°C° 0 mm 6 mps 757 mmHg 82%
    01:00 +28°C° 0 mm 6 mps 756 mmHg 83%
    02:00 +28°C° 0 mm 6 mps 756 mmHg 84%
    03:00 +27°C° 0 mm 6 mps 755 mmHg 85%
    04:00 +27°C° 0 mm 6 mps 756 mmHg 86%
    05:00 +27°C° 0 mm 5 mps 756 mmHg 87%
    06:00 +27°C° 0 mm 5 mps 756 mmHg 88%
    07:00 +28°C° 0 mm 5 mps 757 mmHg 81%
    08:00 +30°C° 0 mm 5 mps 757 mmHg 74%
    09:00 +32°C° 0 mm 5 mps 758 mmHg 68%
    10:00 +33°C° 0 mm 5 mps 757 mmHg 63%
    11:00 +35°C° 0 mm 5 mps 757 mmHg 58%
    12:00 +36°C° 0 mm 5 mps 756 mmHg 54%
    13:00 +35°C° 0.5 mm 5 mps 756 mmHg 56%
    14:00 +35°C° 0.5 mm 6 mps 755 mmHg 57%
    15:00 +35°C° 0.5 mm 6 mps 755 mmHg 59%
    16:00 +34°C° 0.1 mm 6 mps 755 mmHg 64%
    17:00 +32°C° 0.1 mm 6 mps 755 mmHg 68%
    18:00 +30°C° 0.1 mm 6 mps 756 mmHg 73%
    19:00 +30°C° 0 mm 6 mps 756 mmHg 75%
    20:00 +29°C° 0 mm 6 mps 757 mmHg 78%
    21:00 +29°C° 0 mm 6 mps 757 mmHg 81%
    22:00 +29°C° 0 mm 6 mps 757 mmHg 81%
    23:00 +28°C° 0 mm 6 mps 757 mmHg 82%

    20 December, Wednesday

    Time Temperature Precipitation Wind Pressure Humidity
    00:00 +28°C° 0 mm 6 mps 756 mmHg 82%
    01:00 +28°C° 0 mm 5 mps 756 mmHg 84%
    02:00 +27°C° 0 mm 5 mps 756 mmHg 86%
    03:00 +27°C° 0 mm 5 mps 755 mmHg 88%
    04:00 +27°C° 0.5 mm 5 mps 756 mmHg 88%
    05:00 +27°C° 0.5 mm 5 mps 756 mmHg 89%
    06:00 +26°C° 0.5 mm 4 mps 756 mmHg 90%
    07:00 +28°C° 2.7 mm 4 mps 757 mmHg 84%
    08:00 +29°C° 2.7 mm 4 mps 757 mmHg 79%
    09:00 +30°C° 2.7 mm 4 mps 758 mmHg 73%
    10:00 +32°C° 0.2 mm 4 mps 757 mmHg 67%
    11:00 +34°C° 0.2 mm 5 mps 757 mmHg 61%
    12:00 +35°C° 0.2 mm 5 mps 757 mmHg 55%
    13:00 +35°C° 0.2 mm 5 mps 756 mmHg 54%
    14:00 +35°C° 0.2 mm 4 mps 756 mmHg 53%
    15:00 +36°C° 0.2 mm 4 mps 755 mmHg 53%
    16:00 +34°C° 0.1 mm 5 mps 755 mmHg 58%
    17:00 +33°C° 0.1 mm 5 mps 756 mmHg 63%
    18:00 +32°C° 0.1 mm 5 mps 756 mmHg 68%
    19:00 +30°C° 0.1 mm 5 mps 756 mmHg 72%
    20:00 +29°C° 0.1 mm 5 mps 757 mmHg 76%
    21:00 +29°C° 0.1 mm 5 mps 757 mmHg 80%
    22:00 +28°C° 0 mm 5 mps 757 mmHg 81%
    23:00 +28°C° 0 mm 5 mps 757 mmHg 82%

    21 December, Thursday

    Time Temperature Precipitation Wind Pressure Humidity
    00:00 +28°C° 0 mm 5 mps 757 mmHg 82%
    01:00 +28°C° 0 mm 5 mps 756 mmHg 84%
    02:00 +27°C° 0 mm 4 mps 756 mmHg 86%
    03:00 +27°C° 0 mm 4 mps 756 mmHg 88%
    04:00 +27°C° 0 mm 4 mps 756 mmHg 89%
    05:00 +27°C° 0 mm 4 mps 756 mmHg 90%
    06:00 +27°C° 0 mm 4 mps 757 mmHg 91%
    07:00 +28°C° 0 mm 4 mps 757 mmHg 83%
    08:00 +30°C° 0 mm 4 mps 757 mmHg 76%
    09:00 +32°C° 0 mm 4 mps 758 mmHg 69%
    10:00 +34°C° 0.2 mm 4 mps 757 mmHg 63%
    11:00 +35°C° 0.2 mm 4 mps 757 mmHg 57%
    12:00 +36°C° 0.2 mm 5 mps 757 mmHg 51%
    13:00 +36°C° 0.8 mm 5 mps 756 mmHg 52%
    14:00 +36°C° 0.8 mm 5 mps 756 mmHg 54%
    15:00 +35°C° 0.8 mm 5 mps 755 mmHg 55%
    16:00 +34°C° 0.1 mm 5 mps 756 mmHg 60%
    17:00 +33°C° 0.1 mm 5 mps 756 mmHg 65%
    18:00 +32°C° 0.1 mm 5 mps 756 mmHg 70%
    19:00 +30°C° 0 mm 5 mps 757 mmHg 73%
    20:00 +30°C° 0 mm 5 mps 757 mmHg 75%
    21:00 +29°C° 0 mm 5 mps 758 mmHg 78%
    22:00 +29°C° 0 mm 5 mps 758 mmHg 80%
    23:00 +29°C° 0 mm 5 mps 757 mmHg 81%
    Show more